Location: Csohesd
(46.2500°N, 22.6167°E)
Time: 16:09:57
(UTC+00:00)

SL-19 R/B - Pass Details

Date: 05 June 2022
Orbit: 874 x 1208 km, 100.6° (Epoch: 03 July)

Event Time Altitude Azimuth Distance (km) Brightness Sun altitude
Rises 19:56:22 0° 7° (N) 4,053 8.5 -13.0°
Reaches altitude 10° 19:59:55 10° 350° (N) 3,123 8.2 -13.4°
Maximum altitude 20:04:17 18° 312° (NW) 2,617 7.8 -13.8°
Drops below altitude 10° 20:08:41 10° 274° (W) 3,155 7.7 -14.2°
Sets 20:12:19 0° 257° (WSW) 4,111 8.0 -14.6°
